KC7O Weather Reports


Display with metric or nautical units.
time (UTC)temp
F
wind
direction
speed
MPH
gust
MPH
rain 1hr
in
rain 24hr
in
rain mn
in
humidity
%
barometer
mb
20260507144354 66 200 0.0 0.0 0.00 0.00 0.00 72 1014.9
20260507143402 64 229 0.0 0.0 0.00 0.00 0.00 74 1014.9
20260507142905 64 229 0.0 0.0 0.00 0.00 0.00 74 1014.8
20260507142411 65 186 0.0 0.0 0.00 0.00 0.00 74 1014.8
20260507141855 64 186 0.0 0.0 0.00 0.00 0.00 75 1014.7
20260507141358 64 186 0.0 0.0 0.00 0.00 0.00 75 1014.6
20260507140922 63 186 0.0 0.0 0.00 0.00 0.00 77 1014.6
20260507140406 63 186 0.0 0.0 0.00 0.00 0.00 79 1014.5
20260507135851 61 186 0.0 0.0 0.00 0.00 0.00 85 1014.5
20260507135357 58 186 0.0 0.0 0.00 0.00 0.00 88 1014.5
20260507134902 57 186 0.0 0.0 0.00 0.00 0.00 89 1014.5
20260507134407 56 186 0.0 0.0 0.00 0.00 0.00 91 1014.3
20260507133852 55 186 0.0 0.0 0.00 0.00 0.00 92 1014.3
20260507133355 55 186 0.0 0.0 0.00 0.00 0.00 92 1014.2
20260507132859 54 186 0.0 0.0 0.00 0.00 0.00 92 1014.2
20260507132408 54 186 0.0 0.0 0.00 0.00 0.00 91 1014.2
20260507131852 54 186 0.0 0.0 0.00 0.00 0.00 91 1014.2
20260507131354 54 186 0.0 0.0 0.00 0.00 0.00 91 1014.2
20260507130858 54 186 0.0 0.0 0.00 0.00 0.00 91 1014.2
20260507130403 54 186 0.0 0.0 0.00 0.00 0.00 91 1014.0
20260507125908 54 186 0.0 0.0 0.00 0.00 0.00 91 1014.0
20260507125354 54 186 0.0 0.0 0.00 0.00 0.00 91 1014.0
20260507124859 54 186 0.0 0.0 0.00 0.00 0.00 91 1014.0
20260507124403 54 186 0.0 0.0 0.00 0.00 0.00 91 1014.0
20260507123908 54 186 0.0 0.0 0.00 0.00 0.00 91 1014.0
20260507123413 54 186 0.0 0.0 0.00 0.00 0.00 91 1014.0
20260507122916 54 186 0.0 0.0 0.00 0.00 0.00 91 1014.1
20260507122422 54 186 0.0 0.0 0.00 0.00 0.00 90 1014.1
20260507121850 54 186 0.0 0.0 0.00 0.00 0.00 90 1014.1
20260507121355 54 186 0.0 0.0 0.00 0.00 0.00 91 1014.1
20260507120859 54 186 0.0 0.0 0.00 0.00 0.00 90 1014.0
20260507120406 54 186 0.0 0.0 0.00 0.00 0.00 90 1014.1
20260507115852 54 186 0.0 0.0 0.00 0.00 0.00 91 1014.0
20260507115358 54 186 0.0 0.0 0.00 0.00 0.00 91 1014.1
20260507114903 54 186 0.0 0.0 0.00 0.00 0.00 91 1014.1
20260507114428 54 186 0.0 0.0 0.00 0.00 0.00 90 1014.1
20260507113852 54 186 0.0 0.0 0.00 0.00 0.00 90 1014.1
20260507113357 54 186 0.0 0.0 0.00 0.00 0.00 90 1014.1
20260507112904 54 186 0.0 0.0 0.00 0.00 0.00 90 1014.1
20260507112355 54 186 0.0 0.0 0.00 0.00 0.00 90 1014.0
20260507111901 54 186 0.0 0.0 0.00 0.00 0.00 90 1014.1
20260507111425 54 186 0.0 0.0 0.00 0.00 0.00 90 1014.2
20260507110908 54 186 0.0 0.0 0.00 0.00 0.00 89 1014.2
20260507110353 54 186 0.0 0.0 0.00 0.00 0.00 89 1014.3
20260507105856 54 186 0.0 0.0 0.00 0.00 0.00 89 1014.3
20260507105401 54 186 0.0 0.0 0.00 0.00 0.00 89 1014.4
20260507104907 54 186 0.0 0.0 0.00 0.00 0.00 88 1014.4
20260507104354 55 186 0.0 0.0 0.00 0.00 0.00 88 1014.4
20260507103902 55 186 0.0 0.0 0.00 0.00 0.00 88 1014.5
20260507103406 55 186 0.0 0.0 0.00 0.00 0.00 88 1014.5
20260507102912 55 186 0.0 0.0 0.00 0.00 0.00 87 1014.4
20260507102356 55 186 0.0 0.0 0.00 0.00 0.00 87 1014.5
20260507101906 56 186 0.0 0.0 0.00 0.00 0.00 87 1014.5
20260507101353 56 186 0.0 0.0 0.00 0.00 0.00 87 1014.5
20260507100859 56 186 0.0 0.0 0.00 0.00 0.00 87 1014.5
20260507100406 56 186 0.0 0.0 0.00 0.00 0.00 87 1014.6
20260507095851 56 186 0.0 0.0 0.00 0.00 0.00 87 1014.5
20260507095356 55 186 0.0 0.0 0.00 0.00 0.00 87 1014.6
20260507094902 55 186 0.0 0.0 0.00 0.00 0.00 87 1014.6
20260507094406 56 186 0.0 0.0 0.00 0.00 0.00 87 1014.7
20260507093851 56 186 0.0 0.0 0.00 0.00 0.00 87 1014.7
20260507093357 56 186 0.0 0.0 0.00 0.00 0.00 87 1014.8
20260507092902 56 186 0.0 0.0 0.00 0.00 0.00 87 1014.8
20260507092427 56 186 0.0 0.0 0.00 0.00 0.00 87 1014.9
20260507091855 56 186 0.0 0.0 0.00 0.00 0.00 87 1014.9
20260507091401 55 186 0.0 0.0 0.00 0.00 0.00 88 1015.0
20260507090908 55 186 0.0 0.0 0.00 0.00 0.00 88 1014.9
20260507090354 55 186 0.0 0.0 0.00 0.00 0.00 88 1015.0
20260507085859 55 186 0.0 0.0 0.00 0.00 0.00 88 1015.0
20260507085407 55 186 0.0 0.0 0.00 0.00 0.00 88 1015.1
20260507084913 55 186 0.0 0.0 0.00 0.00 0.00 88 1015.2
20260507084419 55 186 0.0 0.0 0.00 0.00 0.00 87 1015.2
20260507083922 55 186 0.0 0.0 0.00 0.00 0.00 87 1015.3
20260507083405 55 186 0.0 0.0 0.00 0.00 0.00 87 1015.3
20260507082913 56 186 0.0 0.0 0.00 0.00 0.00 86 1015.3
20260507082358 56 186 0.0 0.0 0.00 0.00 0.00 86 1015.4
20260507081904 56 186 0.0 0.0 0.00 0.00 0.00 86 1015.4
20260507081354 56 186 0.0 0.0 0.00 0.00 0.00 85 1015.4
20260507080900 56 186 0.0 0.0 0.00 0.00 0.00 85 1015.4
20260507080402 56 186 0.0 0.0 0.00 0.00 0.00 85 1015.5
20260507075908 56 186 0.0 0.0 0.00 0.00 0.00 85 1015.5
20260507075354 56 186 0.0 0.0 0.00 0.00 0.00 85 1015.6
20260507073902 56 186 0.0 0.0 0.00 0.00 0.00 85 1015.5
20260507073407 56 186 0.0 0.0 0.00 0.00 0.00 85 1015.4
20260507072850 56 186 0.0 0.0 0.00 0.00 0.00 85 1015.4
20260507072354 56 186 0.0 0.0 0.00 0.00 0.00 85 1015.4
20260507071858 56 186 0.0 0.0 0.00 0.00 0.00 85 1015.4
20260507071404 56 186 0.0 0.0 0.00 0.00 0.00 85 1015.5
20260507070853 56 186 0.0 0.0 0.00 0.00 0.00 84 1015.5
20260507070419 56 186 0.0 0.0 0.00 0.00 0.00 84 1015.6
20260507065903 57 186 0.0 0.0 0.00 0.00 0.00 84 1015.7
20260507065408 57 186 0.0 0.0 0.00 0.00 0.00 83 1015.7
20260507064852 57 186 0.0 0.0 0.00 0.00 0.00 83 1015.6
20260507064418 57 186 0.0 0.0 0.00 0.00 0.00 82 1015.7
20260507063901 57 186 0.0 0.0 0.00 0.00 0.00 82 1015.8
20260507063406 57 186 0.0 0.0 0.00 0.00 0.00 82 1015.9
20260507062852 58 186 0.0 0.0 0.00 0.00 0.00 82 1015.9
20260507062358 58 186 0.0 0.0 0.00 0.00 0.00 81 1015.8
20260507061905 58 186 0.0 0.0 0.00 0.00 0.00 81 1015.8
20260507061350 58 186 0.0 0.0 0.00 0.00 0.00 81 1015.8
20260507060856 58 186 0.0 0.0 0.00 0.00 0.00 80 1015.8
20260507060406 58 186 0.0 0.0 0.00 0.00 0.00 80 1015.9
20260507055852 58 186 0.0 0.0 0.00 0.00 0.00 80 1015.8
20260507055417 58 186 0.0 0.0 0.00 0.00 0.00 80 1015.8
20260507054901 58 186 0.0 0.0 0.00 0.00 0.00 80 1015.8
20260507054359 58 186 0.0 0.0 0.00 0.00 0.00 80 1015.7
20260507053903 59 186 0.0 0.0 0.00 0.00 0.00 80 1015.7
20260507053407 59 186 0.0 0.0 0.00 0.00 0.00 79 1015.7
20260507052851 59 186 0.0 0.0 0.00 0.00 0.00 79 1015.7
20260507052355 59 186 0.0 0.0 0.00 0.00 0.00 79 1015.7
20260507051901 59 186 0.0 0.0 0.00 0.00 0.00 79 1015.7
20260507051426 59 186 0.0 0.0 0.00 0.00 0.00 78 1015.7
20260507050851 59 186 0.0 0.0 0.00 0.00 0.00 78 1015.6
20260507050355 59 186 0.0 0.0 0.00 0.00 0.00 77 1015.6
20260507045901 60 186 0.0 0.0 0.00 0.00 0.00 77 1015.7
20260507045350 60 186 0.0 0.0 0.00 0.00 0.00 77 1015.7
20260507044857 60 186 0.0 0.0 0.00 0.00 0.00 76 1015.6
20260507044402 60 186 0.0 0.0 0.00 0.00 0.00 76 1015.6
20260507043849 60 186 0.0 0.0 0.00 0.00 0.00 75 1015.6
20260507043414 61 186 0.0 0.0 0.00 0.00 0.00 76 1015.5
20260507042856 61 186 0.0 0.0 0.00 0.00 0.00 75 1015.5
20260507042401 61 186 0.0 0.0 0.00 0.00 0.00 75 1015.4
20260507041926 61 186 0.0 0.0 0.00 0.00 0.00 74 1015.5
20260507041351 61 186 0.0 0.0 0.00 0.00 0.00 74 1015.4
20260507040915 61 186 0.0 0.0 0.00 0.00 0.00 74 1015.4
20260507040359 61 186 0.0 0.0 0.00 0.00 0.00 73 1015.4
20260507035903 62 186 0.0 0.0 0.00 0.00 0.00 73 1015.3
20260507035350 62 186 0.0 0.0 0.00 0.00 0.00 72 1015.2
20260507034858 62 186 0.0 0.0 0.00 0.00 0.00 72 1015.2
20260507034402 62 186 0.0 0.0 0.00 0.00 0.00 72 1015.1
20260507033925 62 176 0.0 0.0 0.00 0.00 0.00 72 1015.1
20260507033349 62 246 0.0 0.0 0.00 0.00 0.00 72 1015.0
20260507032857 63 246 0.0 0.0 0.00 0.00 0.00 71 1014.9
20260507032403 63 246 0.0 0.0 0.00 0.00 0.00 70 1015.0
20260507031848 63 246 0.0 0.0 0.00 0.00 0.00 70 1014.9
20260507031355 64 246 0.0 0.0 0.00 0.00 0.00 70 1014.9
20260507030857 64 246 0.0 0.0 0.00 0.00 0.00 69 1014.9
20260507030404 64 246 0.0 0.0 0.00 0.00 0.00 69 1014.8
20260507025850 65 246 0.0 0.0 0.00 0.00 0.00 68 1014.8
20260507025355 65 246 0.0 0.0 0.00 0.00 0.00 68 1014.7
20260507024905 65 246 0.0 0.0 0.00 0.00 0.00 68 1014.7
20260507024352 65 246 0.0 1.0 0.00 0.00 0.00 68 1014.7
20260507023918 65 245 0.0 2.0 0.00 0.00 0.00 67 1014.7
20260507023422 66 258 1.0 3.0 0.00 0.00 0.00 67 1014.6
20260507022906 66 242 1.0 3.0 0.00 0.00 0.00 66 1014.5
20260507022353 66 265 0.0 4.0 0.00 0.00 0.00 66 1014.4
20260507021857 66 244 2.0 4.0 0.00 0.00 0.00 65 1014.4
20260507021404 67 261 1.0 3.0 0.00 0.00 0.00 65 1014.3
20260507020921 67 268 0.0 3.0 0.00 0.00 0.00 65 1014.3
20260507020405 67 252 0.0 4.0 0.00 0.00 0.00 64 1014.2
20260507015850 68 231 1.0 4.0 0.00 0.00 0.00 63 1014.2
20260507015356 68 262 1.0 3.0 0.00 0.00 0.00 63 1014.1
20260507014901 68 262 0.0 3.0 0.00 0.00 0.00 63 1014.2
20260507014406 69 250 0.0 4.0 0.00 0.00 0.00 63 1014.2
20260507013850 69 227 1.0 5.0 0.00 0.00 0.00 63 1014.1
20260507012857 70 179 2.0 5.0 0.00 0.00 0.00 62 1014.1
20260507012406 70 151 1.0 5.0 0.00 0.00 0.00 61 1014.0
20260507011851 71 226 2.0 5.0 0.00 0.00 0.00 60 1013.9
20260507011355 71 219 2.0 4.0 0.00 0.00 0.00 59 1013.8
20260507010901 72 231 1.0 4.0 0.00 0.00 0.00 58 1013.8
20260507010406 72 179 2.0 4.0 0.00 0.00 0.00 59 1013.8
20260507005920 72 249 2.0 4.0 0.00 0.00 0.00 59 1013.7
20260507005350 72 216 2.0 4.0 0.00 0.00 0.00 58 1013.7
20260507004930 72 148 1.0 5.0 0.00 0.00 0.00 59 1013.8
20260507004352 72 184 3.0 6.0 0.00 0.00 0.00 59 1013.7
20260507003858 72 279 1.0 7.0 0.00 0.00 0.00 59 1013.9
20260507003403 72 213 3.0 7.0 0.00 0.00 0.00 58 1013.8
20260507002849 72 141 0.0 5.0 0.00 0.00 0.00 59 1013.8
20260507002352 72 260 2.0 6.0 0.00 0.00 0.00 59 1013.8
20260507001857 72 167 2.0 6.0 0.00 0.00 0.00 59 1013.7
20260507001424 73 154 1.0 4.0 0.00 0.00 0.00 59 1013.8
20260507000907 73 184 1.0 3.0 0.00 0.00 0.00 59 1013.7
20260507000354 73 264 0.0 3.0 0.00 0.00 0.00 60 1013.7
20260506235858 73 286 2.0 5.0 0.00 0.00 0.00 59 1013.6
20260506235403 73 256 1.0 6.0 0.00 0.00 0.00 59 1013.7
20260506234849 72 276 1.0 6.0 0.00 0.00 0.00 59 1013.7
20260506234353 72 175 2.0 5.0 0.00 0.00 0.00 60 1013.6
20260506233855 73 266 3.0 5.0 0.00 0.00 0.00 59 1013.6
20260506233353 73 242 2.0 6.0 0.00 0.00 0.00 58 1013.6
20260506232901 73 220 1.0 6.0 0.00 0.00 0.00 59 1013.7
20260506231355 74 160 3.0 9.0 0.00 0.00 0.00 58 1013.6
20260506230902 74 255 3.0 9.0 0.00 0.00 0.00 58 1013.7
20260506225856 75 202 2.0 8.0 0.00 0.00 0.00 57 1013.7
20260506225401 75 216 3.0 8.0 0.00 0.00 0.00 57 1013.7
20260506224902 75 243 4.0 8.0 0.00 0.00 0.00 56 1013.7
20260506224359 75 279 2.0 5.0 0.00 0.00 0.00 55 1013.8
20260506223906 75 185 1.0 6.0 0.00 0.00 0.00 55 1013.8
20260506223408 75 151 3.0 8.0 0.00 0.00 0.00 55 1013.9
20260506222854 75 158 2.0 8.0 0.00 0.00 0.00 55 1013.9
20260506222359 75 262 3.0 8.0 0.00 0.00 0.00 55 1014.0
20260506221904 75 284 1.0 6.0 0.00 0.00 0.00 55 1014.0
20260506221428 75 219 1.0 6.0 0.00 0.00 0.00 55 1014.0
20260506220851 75 236 3.0 7.0 0.00 0.00 0.00 55 1014.2
20260506220358 75 242 2.0 6.0 0.00 0.00 0.00 54 1014.3
20260506215924 75 193 3.0 6.0 0.00 0.00 0.00 54 1014.3
20260506215425 75 267 1.0 6.0 0.00 0.00 0.00 53 1014.3
20260506214849 75 219 2.0 5.0 0.00 0.00 0.00 53 1014.4
20260506214412 75 157 2.0 6.0 0.00 0.00 0.00 53 1014.5
20260506213858 75 138 2.0 6.0 0.00 0.00 0.00 53 1014.6
20260506212857 75 209 1.0 5.0 0.00 0.00 0.00 54 1014.7
20260506212403 74 262 2.0 5.0 0.00 0.00 0.00 55 1014.8
20260506211907 74 265 2.0 8.0 0.00 0.00 0.00 55 1014.8
20260506211412 74 246 4.0 8.0 0.00 0.00 0.00 54 1014.8
20260506210858 74 126 1.0 5.0 0.00 0.00 0.00 54 1014.9
20260506210422 74 249 3.0 6.0 0.00 0.00 0.00 55 1015.0
20260506205907 74 217 2.0 6.0 0.00 0.00 0.00 55 1015.1
20260506205353 74 225 1.0 7.0 0.00 0.00 0.00 55 1015.1
20260506204857 74 208 1.0 7.0 0.00 0.00 0.00 54 1015.2
20260506204402 75 179 3.0 6.0 0.00 0.00 0.00 55 1015.2
20260506203849 74 150 2.0 5.0 0.00 0.00 0.00 55 1015.2
20260506203413 73 162 1.0 6.0 0.00 0.00 0.00 56 1015.3
20260506202855 73 273 2.0 6.0 0.00 0.00 0.00 57 1015.4
20260506202359 72 239 2.0 5.0 0.00 0.00 0.00 56 1015.4
20260506201925 72 179 2.0 7.0 0.00 0.00 0.00 56 1015.4
20260506201348 72 148 2.0 7.0 0.00 0.00 0.00 56 1015.5
20260506200853 72 156 1.0 6.0 0.00 0.00 0.00 59 1015.5
20260506200358 72 236 2.0 6.0 0.00 0.00 0.00 58 1015.8
20260506195903 71 232 3.0 6.0 0.00 0.00 0.00 58 1015.8
20260506195406 71 160 3.0 5.0 0.00 0.00 0.00 57 1015.8
20260506194851 71 1 1.0 5.0 0.00 0.00 0.00 59 1015.9
20260506194355 70 212 2.0 5.0 0.00 0.00 0.00 60 1015.9
20260506193901 70 274 3.0 5.0 0.00 0.00 0.00 58 1016.0
20260506193406 71 266 1.0 5.0 0.00 0.00 0.00 59 1016.0
20260506192856 70 210 2.0 4.0 0.00 0.00 0.00 59 1016.1
20260506192402 70 189 2.0 5.0 0.00 0.00 0.00 59 1016.1
20260506191909 70 173 3.0 5.0 0.00 0.00 0.00 59 1016.2
20260506191351 70 141 3.0 5.0 0.00 0.00 0.00 59 1016.3
20260506190856 70 230 2.0 6.0 0.00 0.00 0.00 59 1016.3
20260506190401 69 199 3.0 6.0 0.00 0.00 0.00 60 1016.4
20260506185927 69 166 1.0 6.0 0.00 0.00 0.00 61 1016.4
20260506185349 69 266 2.0 6.0 0.00 0.00 0.00 61 1016.5
20260506184853 69 149 2.0 4.0 0.00 0.00 0.00 61 1016.5
20260506184357 68 141 0.0 6.0 0.00 0.00 0.00 62 1016.5
20260506183903 68 214 2.0 7.0 0.00 0.00 0.00 62 1016.6
20260506183406 68 120 3.0 7.0 0.00 0.00 0.00 61 1016.6
20260506182853 69 278 1.0 6.0 0.00 0.00 0.00 62 1016.7
20260506182356 68 254 2.0 4.0 0.00 0.00 0.00 62 1016.6
20260506181905 68 283 1.0 5.0 0.00 0.00 0.00 63 1016.7
20260506181350 67 149 1.0 5.0 0.00 0.00 0.00 62 1016.7
20260506180856 68 152 2.0 5.0 0.00 0.00 0.00 61 1016.7
20260506180359 68 143 0.0 4.0 0.00 0.00 0.00 64 1016.7
20260506175926 67 216 0.0 4.0 0.00 0.00 0.00 65 1016.7
20260506175350 67 140 3.0 5.0 0.00 0.00 0.00 64 1016.7
20260506174856 67 144 1.0 5.0 0.00 0.00 0.00 63 1016.7
20260506174400 67 184 2.0 5.0 0.00 0.00 0.00 64 1016.6
20260506173906 67 174 1.0 5.0 0.00 0.00 0.00 64 1016.7
20260506173351 66 291 2.0 5.0 0.00 0.00 0.00 64 1016.7
20260506172857 66 108 1.0 5.0 0.00 0.00 0.00 66 1016.8
20260506172402 66 176 1.0 4.0 0.00 0.00 0.00 66 1016.7
20260506171911 65 133 2.0 4.0 0.00 0.00 0.00 66 1016.8
20260506171354 64 79 2.0 5.0 0.00 0.00 0.00 67 1016.7
20260506170859 65 133 3.0 5.0 0.00 0.00 0.00 67 1016.7
20260506170403 64 147 1.0 5.0 0.00 0.00 0.00 67 1016.6
20260506165907 64 176 2.0 5.0 0.00 0.00 0.00 68 1016.6
20260506165351 64 168 1.0 7.0 0.00 0.00 0.00 69 1016.6
20260506164856 63 135 1.0 7.0 0.00 0.00 0.00 69 1016.6
20260506164401 64 232 2.0 6.0 0.00 0.00 0.00 68 1016.7
20260506163905 63 172 1.0 5.0 0.00 0.00 0.00 70 1016.7
20260506163350 63 168 1.0 5.0 0.00 0.00 0.00 70 1016.7
20260506162854 64 181 2.0 4.0 0.00 0.00 0.00 69 1016.7
20260506162357 64 169 1.0 4.0 0.00 0.00 0.00 70 1016.6
20260506161921 63 183 1.0 3.0 0.00 0.00 0.00 71 1016.6
20260506161407 63 163 0.0 3.0 0.00 0.00 0.00 71 1016.6
20260506160853 62 93 0.0 4.0 0.00 0.00 0.00 72 1016.6
20260506160427 62 155 1.0 4.0 0.00 0.00 0.00 73 1016.7
20260506155406 61 174 0.0 4.0 0.00 0.00 0.00 74 1016.7
20260506154851 61 139 1.0 4.0 0.00 0.00 0.00 73 1016.7
20260506154356 61 179 0.0 4.0 0.00 0.00 0.00 75 1016.6
20260506153902 60 136 0.0 4.0 0.00 0.00 0.00 74 1016.6
20260506153348 60 161 0.0 4.0 0.00 0.00 0.00 76 1016.7
20260506152854 60 163 1.0 4.0 0.00 0.00 0.00 76 1016.7
20260506152358 60 156 0.0 2.0 0.00 0.00 0.00 77 1016.7
20260506151918 59 127 0.0 2.0 0.00 0.00 0.00 77 1016.7
20260506151359 60 172 1.0 2.0 0.00 0.00 0.00 76 1016.7
20260506150906 60 146 0.0 2.0 0.00 0.00 0.00 76 1016.8
20260506150351 60 162 0.0 4.0 0.00 0.00 0.00 78 1016.8
20260506145854 59 158 0.0 4.0 0.00 0.00 0.00 78 1016.7
20260506145358 59 134 0.0 0.0 0.00 0.00 0.00 78 1016.7
20260506144903 59 153 0.0 3.0 0.00 0.00 0.00 79 1016.7